GW5072 Weather Reports


Display with metric or nautical units.
time (UTC)temp
F
wind
direction
speed
MPH
gust
MPH
rain 1hr
in
rain 24hr
in
rain mn
in
humidity
%
barometer
mb
20260505204523 85 219 2.0 7.0 0.00 0.00 0.00 73 1008.0
20260505204010 85 209 2.0 7.0 0.00 0.00 0.00 73 1008.0
20260505203512 85 126 1.0 5.0 0.00 0.00 0.00 73 1008.1
20260505203033 85 259 1.0 6.0 0.00 0.00 0.00 77 1008.2
20260505202508 84 209 1.0 6.0 0.00 0.00 0.00 75 1008.2
20260505202009 84 115 2.0 8.0 0.00 0.00 0.00 77 1008.3
20260505201525 83 255 3.0 8.0 0.00 0.00 0.00 75 1008.4
20260505201010 83 237 2.0 9.0 0.00 0.00 0.00 76 1008.3
20260505200514 83 181 2.0 9.0 0.00 0.00 0.00 76 1008.4
20260505200015 83 94 0.0 9.0 0.00 0.00 0.00 77 1008.5
20260505195511 83 195 2.0 9.0 0.00 0.00 0.00 76 1008.7
20260505195007 83 122 1.0 8.0 0.00 0.00 0.00 76 1008.7
20260505194528 83 124 0.0 8.0 0.00 0.00 0.00 76 1008.8
20260505194009 83 275 1.0 5.0 0.00 0.00 0.00 76 1008.9
20260505193505 83 135 1.0 8.0 0.00 0.00 0.00 78 1008.9
20260505193025 83 257 0.0 9.0 0.00 0.00 0.00 79 1008.9
20260505192508 82 62 1.0 10.0 0.00 0.00 0.00 77 1009.0
20260505192004 82 245 2.0 10.0 0.00 0.00 0.00 77 1009.0
20260505191527 82 219 3.0 9.0 0.00 0.00 0.00 78 1008.9
20260505191011 82 75 1.0 8.0 0.00 0.00 0.00 78 1009.0
20260505190510 82 241 2.0 5.0 0.00 0.00 0.00 78 1009.1
20260505190024 82 223 0.0 7.0 0.00 0.00 0.00 79 1009.1
20260505185507 82 264 1.0 7.0 0.00 0.00 0.00 80 1009.0
20260505185012 81 98 1.0 8.0 0.00 0.00 0.00 79 1009.2
20260505184526 82 11 2.0 11.0 0.00 0.00 0.00 78 1009.1
20260505184006 82 216 2.0 11.0 0.00 0.00 0.00 79 1009.3
20260505183511 82 86 1.0 7.0 0.00 0.00 0.00 80 1009.2
20260505183021 81 309 0.0 6.0 0.00 0.00 0.00 81 1009.2
20260505182517 81 135 1.0 6.0 0.00 0.00 0.00 82 1009.3
20260505182012 80 217 0.0 7.0 0.00 0.00 0.00 82 1009.4
20260505181521 80 249 2.0 7.0 0.00 0.00 0.00 81 1009.5
20260505181006 80 146 3.0 7.0 0.00 0.00 0.00 81 1009.5
20260505180505 80 210 2.0 5.0 0.00 0.00 0.00 81 1009.6
20260505180037 80 91 1.0 4.0 0.00 0.00 0.00 81 1009.5
20260505175504 80 149 2.0 9.0 0.00 0.00 0.00 82 1009.6
20260505175010 80 214 1.0 9.0 0.00 0.00 0.00 83 1009.6
20260505174532 79 128 0.0 6.0 0.00 0.00 0.00 83 1009.6
20260505174004 79 233 2.0 7.0 0.00 0.00 0.00 82 1009.6
20260505173506 79 208 0.0 7.0 0.00 0.00 0.00 84 1009.6
20260505173020 78 100 1.0 6.0 0.00 0.00 0.00 85 1009.6
20260505172502 78 204 2.0 8.0 0.00 0.00 0.00 84 1009.7
20260505172006 78 82 0.0 8.0 0.00 0.00 0.00 84 1009.8
20260505171516 78 226 0.0 3.0 0.00 0.00 0.00 84 1009.8
20260505171007 79 165 1.0 4.0 0.00 0.00 0.00 83 1009.8
20260505170508 79 219 0.0 4.0 0.00 0.00 0.00 84 1009.8
20260505170006 79 264 0.0 4.0 0.00 0.00 0.00 84 1009.8
20260505165509 79 183 1.0 5.0 0.00 0.00 0.00 83 1009.9
20260505165008 79 193 1.0 6.0 0.00 0.00 0.00 84 1010.0
20260505164506 78 238 2.0 6.0 0.00 0.00 0.00 84 1010.0
20260505164007 78 120 0.0 8.0 0.00 0.00 0.00 85 1009.9
20260505163504 78 207 1.0 8.0 0.00 0.00 0.00 85 1009.9
20260505163024 77 97 1.0 5.0 0.00 0.00 0.00 86 1010.1
20260505162504 77 256 2.0 7.0 0.00 0.00 0.00 85 1010.1
20260505162003 77 209 2.0 7.0 0.00 0.00 0.00 86 1009.9
20260505161521 77 212 2.0 7.0 0.00 0.00 0.00 86 1010.0
20260505161003 77 223 2.0 7.0 0.00 0.00 0.00 86 1010.0
20260505160511 77 184 1.0 6.0 0.00 0.00 0.00 86 1009.9
20260505153012 76 96 0.0 5.0 0.00 0.00 0.00 86 1009.6
20260505152512 76 196 1.0 7.0 0.00 0.00 0.00 86 1009.5
20260505152010 76 209 0.0 7.0 0.00 0.00 0.00 86 1009.6
20260505151513 76 8 1.0 6.0 0.00 0.00 0.00 86 1009.7
20260505151010 76 248 0.0 3.0 0.00 0.00 0.00 87 1009.7
20260505150510 76 263 0.0 7.0 0.00 0.00 0.00 87 1009.5
20260505140507 74 198 0.0 3.0 0.00 0.00 0.00 89 1009.4
20260505125004 71 212 0.0 4.0 0.00 0.00 0.00 92 1009.3
20260505124531 71 238 0.0 4.0 0.00 0.00 0.00 92 1009.2
20260505124007 71 299 0.0 1.0 0.00 0.00 0.00 93 1008.9
20260505123504 71 266 0.0 1.0 0.00 0.00 0.00 93 1008.7
20260505123023 70 188 0.0 3.0 0.00 0.00 0.00 93 1008.8
20260505122505 70 221 0.0 5.0 0.00 0.00 0.00 93 1008.9
20260505122007 70 229 0.0 5.0 0.00 0.00 0.00 93 1008.9
20260505121523 70 101 1.0 3.0 0.00 0.00 0.00 93 1009.0
20260505121003 70 273 0.0 4.0 0.00 0.00 0.00 93 1009.1
20260505120513 70 272 0.0 4.0 0.00 0.00 0.00 93 1009.0
20260505120020 70 260 0.0 1.0 0.00 0.00 0.00 92 1009.0
20260505115504 70 217 0.0 1.0 0.00 0.00 0.00 92 1008.8
20260505115013 70 208 0.0 1.0 0.00 0.00 0.00 92 1008.7
20260505114517 70 198 0.0 1.0 0.00 0.00 0.00 92 1008.6
20260505114012 70 244 0.0 2.0 0.00 0.00 0.00 92 1008.5
20260505113507 70 233 0.0 2.0 0.00 0.00 0.00 92 1008.5
20260505113019 70 244 0.0 2.0 0.00 0.00 0.00 92 1008.6
20260505112509 70 254 0.0 2.0 0.00 0.00 0.00 92 1009.0
20260505112004 70 217 0.0 1.0 0.00 0.00 0.00 92 1008.9
20260505111528 70 221 0.0 1.0 0.00 0.00 0.00 92 1008.8
20260505111010 70 221 0.0 3.0 0.00 0.00 0.00 92 1008.8
20260505110504 70 220 0.0 3.0 0.00 0.00 0.00 92 1008.8
20260505102010 69 221 0.0 1.0 0.00 0.00 0.00 92 1008.9
20260505101532 69 221 0.0 1.0 0.00 0.00 0.00 92 1009.0
20260505101007 69 121 0.0 0.0 0.00 0.00 0.00 92 1008.8
20260505100506 69 226 0.0 1.0 0.00 0.00 0.00 92 1008.7
20260505100023 69 226 0.0 1.0 0.00 0.00 0.00 92 1008.8
20260505095510 69 190 0.0 1.0 0.00 0.00 0.00 92 1008.8
20260505095008 69 194 0.0 1.0 0.00 0.00 0.00 92 1009.0
20260505094520 69 321 0.0 1.0 0.00 0.00 0.00 92 1008.9
20260505094011 69 257 0.0 1.0 0.00 0.00 0.00 92 1008.9
20260505093509 69 259 0.0 1.0 0.00 0.00 0.00 92 1008.9
20260505093035 69 259 0.0 0.0 0.00 0.00 0.00 91 1008.9
20260505092510 69 259 0.0 1.0 0.00 0.00 0.00 91 1008.9
20260505092008 69 259 0.0 1.0 0.00 0.00 0.00 91 1009.0
20260505091527 69 226 0.0 1.0 0.00 0.00 0.00 91 1009.1
20260505091003 69 271 0.0 1.0 0.00 0.00 0.00 91 1009.2
20260505090504 69 271 0.0 1.0 0.00 0.00 0.00 91 1009.2
20260505090014 69 283 0.0 1.0 0.00 0.00 0.00 91 1009.2
20260505085503 69 229 0.0 1.0 0.00 0.00 0.00 91 1009.2
20260505085009 69 218 0.0 3.0 0.00 0.00 0.00 91 1009.2
20260505084508 69 217 0.0 3.0 0.00 0.00 0.00 90 1009.2
20260505084008 69 204 0.0 3.0 0.00 0.00 0.00 90 1009.2
20260505083513 69 203 0.0 3.0 0.00 0.00 0.00 90 1009.2
20260505083011 69 212 0.0 2.0 0.00 0.00 0.00 90 1009.2
20260505082503 69 195 0.0 1.0 0.00 0.00 0.00 90 1009.4
20260505082003 69 224 0.0 1.0 0.00 0.00 0.00 89 1009.6
20260505081507 69 174 0.0 1.0 0.00 0.00 0.00 89 1009.6
20260505081008 69 238 0.0 2.0 0.00 0.00 0.00 89 1009.5
20260505080504 69 236 0.0 2.0 0.00 0.00 0.00 89 1009.5
20260505080018 70 205 0.0 2.0 0.00 0.00 0.00 89 1009.6
20260505075507 70 225 0.0 2.0 0.00 0.00 0.00 89 1009.8
20260505075003 69 233 0.0 2.0 0.00 0.00 0.00 89 1009.9
20260505074517 69 214 0.0 2.0 0.00 0.00 0.00 89 1009.7
20260505074006 69 231 0.0 1.0 0.00 0.00 0.00 89 1009.7
20260505073508 69 257 0.0 1.0 0.00 0.00 0.00 89 1009.8
20260505073018 69 274 0.0 1.0 0.00 0.00 0.00 89 1009.9
20260505072507 69 145 0.0 1.0 0.00 0.00 0.00 89 1009.8
20260505072007 69 215 0.0 1.0 0.00 0.00 0.00 88 1010.0
20260505071514 69 207 0.0 1.0 0.00 0.00 0.00 88 1010.0
20260505071003 69 130 0.0 2.0 0.00 0.00 0.00 88 1010.1
20260505070506 69 235 0.0 2.0 0.00 0.00 0.00 88 1010.1
20260505070012 69 203 0.0 2.0 0.00 0.00 0.00 88 1010.1
20260505065511 69 243 0.0 1.0 0.00 0.00 0.00 88 1010.2
20260505065005 69 232 0.0 1.0 0.00 0.00 0.00 88 1010.2
20260505064511 69 236 0.0 1.0 0.00 0.00 0.00 88 1010.3
20260505064007 69 241 0.0 1.0 0.00 0.00 0.00 88 1010.3
20260505063506 69 110 0.0 1.0 0.00 0.00 0.00 88 1010.3
20260505063013 69 155 0.0 1.0 0.00 0.00 0.00 88 1010.3
20260505062512 69 113 0.0 2.0 0.00 0.00 0.00 88 1010.5
20260505062004 69 205 0.0 2.0 0.00 0.00 0.00 88 1010.4
20260505061521 69 246 0.0 1.0 0.00 0.00 0.00 87 1010.4
20260505061008 69 117 0.0 4.0 0.00 0.00 0.00 87 1010.4
20260505060503 69 222 0.0 4.0 0.00 0.00 0.00 87 1010.5
20260505060023 69 124 0.0 4.0 0.00 0.00 0.00 87 1010.7
20260505055506 69 194 0.0 1.0 0.00 0.00 0.00 87 1010.7
20260505055003 69 276 0.0 2.0 0.00 0.00 0.00 87 1010.6
20260505054522 69 306 0.0 2.0 0.00 0.00 0.00 87 1010.7
20260505054006 69 126 0.0 2.0 0.00 0.00 0.00 86 1010.7
20260505053510 69 98 0.0 4.0 0.00 0.00 0.00 86 1010.7
20260505053020 69 97 0.0 4.0 0.00 0.00 0.00 86 1010.9
20260505052504 69 284 0.0 3.0 0.00 0.00 0.00 86 1010.9
20260505052009 69 284 0.0 3.0 0.00 0.00 0.00 86 1010.9
20260505051533 70 108 0.0 5.0 0.00 0.00 0.00 86 1011.0
20260505051009 70 148 0.0 5.0 0.00 0.00 0.00 85 1011.0
20260505050511 70 261 0.0 5.0 0.00 0.00 0.00 85 1011.1
20260505041527 71 195 0.0 8.0 0.00 0.00 0.00 83 1011.1
20260505041007 71 257 0.0 8.0 0.00 0.00 0.00 83 1011.1
20260505040504 71 131 0.0 3.0 0.00 0.00 0.00 83 1011.0
20260505040026 71 128 0.0 5.0 0.00 0.00 0.00 82 1010.9
20260505035503 71 97 0.0 5.0 0.00 0.00 0.00 82 1011.1
20260505035008 71 121 1.0 5.0 0.00 0.00 0.00 82 1011.3
20260505034524 71 214 0.0 5.0 0.00 0.00 0.00 81 1011.2
20260505034004 72 194 0.0 3.0 0.00 0.00 0.00 81 1011.1
20260505033511 72 111 0.0 6.0 0.00 0.00 0.00 81 1011.0
20260505033024 71 117 0.0 6.0 0.00 0.00 0.00 81 1011.2
20260505032505 71 222 2.0 6.0 0.00 0.00 0.00 81 1011.4
20260505032008 72 98 0.0 3.0 0.00 0.00 0.00 81 1011.4
20260505031520 72 117 0.0 3.0 0.00 0.00 0.00 81 1011.3
20260505031007 72 123 0.0 3.0 0.00 0.00 0.00 80 1011.3
20260505030508 72 251 0.0 6.0 0.00 0.00 0.00 80 1011.3
20260505030017 72 116 0.0 6.0 0.00 0.00 0.00 79 1011.1
20260505025513 72 155 0.0 3.0 0.00 0.00 0.00 79 1011.2
20260505025008 72 134 1.0 5.0 0.00 0.00 0.00 79 1011.1
20260505024526 72 238 1.0 5.0 0.00 0.00 0.00 79 1011.0
20260505024008 73 141 0.0 6.0 0.00 0.00 0.00 79 1010.9
20260505023505 73 124 1.0 6.0 0.00 0.00 0.00 79 1011.0
20260505023026 73 84 0.0 5.0 0.00 0.00 0.00 78 1011.0
20260505022506 73 101 0.0 5.0 0.00 0.00 0.00 78 1011.0
20260505022006 73 122 1.0 3.0 0.00 0.00 0.00 78 1011.0
20260505021526 73 129 1.0 6.0 0.00 0.00 0.00 78 1010.9
20260505021004 73 191 0.0 6.0 0.00 0.00 0.00 78 1010.9
20260505020509 73 200 1.0 5.0 0.00 0.00 0.00 78 1010.9
20260505020026 73 119 0.0 3.0 0.00 0.00 0.00 79 1010.8
20260505015512 73 254 1.0 3.0 0.00 0.00 0.00 79 1010.9
20260505015008 73 164 0.0 3.0 0.00 0.00 0.00 79 1010.9
20260505014525 73 235 0.0 2.0 0.00 0.00 0.00 79 1010.8
20260505014007 72 91 0.0 0.0 0.00 0.00 0.00 80 1010.8
20260505013509 72 158 0.0 0.0 0.00 0.00 0.00 80 1010.6
20260505013024 72 155 0.0 1.0 0.00 0.00 0.00 79 1010.6
20260505012506 73 245 0.0 1.0 0.00 0.00 0.00 79 1010.6
20260505012011 73 269 0.0 2.0 0.00 0.00 0.00 79 1010.6
20260505011522 73 269 0.0 2.0 0.00 0.00 0.00 78 1010.4
20260505011011 73 221 0.0 1.0 0.00 0.00 0.00 77 1010.3
20260505010508 74 176 0.0 1.0 0.00 0.00 0.00 77 1010.4
20260505010028 74 149 0.0 2.0 0.00 0.00 0.00 76 1010.6
20260505005513 74 229 0.0 3.0 0.00 0.00 0.00 75 1010.5
20260505005006 75 91 0.0 4.0 0.00 0.00 0.00 74 1010.4
20260505004528 75 206 0.0 4.0 0.00 0.00 0.00 74 1010.4
20260505004008 75 236 0.0 3.0 0.00 0.00 0.00 74 1010.6
20260505003511 75 187 1.0 5.0 0.00 0.00 0.00 73 1010.4
20260505003025 76 127 0.0 5.0 0.00 0.00 0.00 73 1010.4
20260505002510 76 262 1.0 5.0 0.00 0.00 0.00 73 1010.4
20260505002009 76 120 0.0 4.0 0.00 0.00 0.00 73 1010.4
20260505001528 76 187 1.0 4.0 0.00 0.00 0.00 73 1010.4
20260505001002 76 117 0.0 7.0 0.00 0.00 0.00 71 1010.4
20260505000506 76 121 0.0 7.0 0.00 0.00 0.00 71 1010.5
20260505000008 77 238 0.0 7.0 0.00 0.00 0.00 71 1010.6
20260504235502 77 162 2.0 7.0 0.00 0.00 0.00 70 1010.6
20260504235006 77 220 0.0 11.0 0.00 0.00 0.00 70 1010.6
20260504234504 77 203 0.0 11.0 0.00 0.00 0.00 70 1010.6
20260504234002 78 86 1.0 6.0 0.00 0.00 0.00 69 1010.6
20260504233502 78 118 0.0 3.0 0.00 0.00 0.00 69 1010.4
20260504233003 78 179 0.0 3.0 0.00 0.00 0.00 68 1010.6
20260504232506 78 115 0.0 4.0 0.00 0.00 0.00 67 1010.7
20260504232002 78 122 1.0 4.0 0.00 0.00 0.00 66 1010.7
20260504231503 79 184 0.0 4.0 0.00 0.00 0.00 67 1010.7
20260504231005 79 109 0.0 3.0 0.00 0.00 0.00 66 1010.8
20260504230502 79 167 0.0 6.0 0.00 0.00 0.00 66 1010.9
20260504230020 79 119 1.0 6.0 0.00 0.00 0.00 65 1010.9
20260504225504 79 102 1.0 4.0 0.00 0.00 0.00 65 1011.1
20260504225001 79 104 2.0 4.0 0.00 0.00 0.00 65 1011.2
20260504224515 80 85 1.0 4.0 0.00 0.00 0.00 64 1011.0
20260504224003 80 112 1.0 5.0 0.00 0.00 0.00 64 1011.0
20260504223503 80 122 1.0 5.0 0.00 0.00 0.00 64 1011.0
20260504223013 80 103 1.0 4.0 0.00 0.00 0.00 63 1011.2
20260504222504 80 71 1.0 5.0 0.00 0.00 0.00 64 1011.1
20260504222005 80 210 0.0 5.0 0.00 0.00 0.00 63 1011.2
20260504221510 80 109 1.0 5.0 0.00 0.00 0.00 64 1011.2
20260504221002 80 218 0.0 10.0 0.00 0.00 0.00 63 1011.3
20260504220506 80 210 0.0 10.0 0.00 0.00 0.00 63 1011.5
20260504220009 80 205 0.0 6.0 0.00 0.00 0.00 62 1011.4
20260504215502 80 120 2.0 6.0 0.00 0.00 0.00 60 1011.4
20260504215007 81 136 1.0 4.0 0.00 0.00 0.00 61 1011.5
20260504214504 82 98 1.0 5.0 0.00 0.00 0.00 60 1011.5
20260504214007 82 83 2.0 5.0 0.00 0.00 0.00 61 1011.6
20260504213503 82 188 0.0 3.0 0.00 0.00 0.00 61 1011.8
20260504213004 83 102 0.0 3.0 0.00 0.00 0.00 59 1011.7
20260504212506 83 122 0.0 3.0 0.00 0.00 0.00 58 1011.8
20260504212003 83 212 0.0 6.0 0.00 0.00 0.00 59 1011.9
20260504211503 82 121 1.0 6.0 0.00 0.00 0.00 58 1011.9
20260504211006 82 259 0.0 5.0 0.00 0.00 0.00 62 1012.0
20260504210503 82 239 1.0 4.0 0.00 0.00 0.00 59 1012.2
20260504210027 82 227 1.0 5.0 0.00 0.00 0.00 59 1012.1
20260504205506 83 105 1.0 5.0 0.00 0.00 0.00 59 1012.1
20260504205004 82 115 1.0 5.0 0.00 0.00 0.00 59 1012.2